Regional Weather Roundup
Issued by NWS

Home | Current Version | Previous Version | Graphics & Text | Print | Product List | Glossary On
Versions: 1 2 3 4 5 6 7 8 9 10 11 12 13 14 15 16 17 18 19 20 21 22 23 24 25 26 27 28 29 30 31 32 33 34 35 36 37 38 39 40 41 42 43 44 45 46 47 48 49 50
000
ASUS43 KDMX 020207
RWRIA

WEATHER ROUNDUP FOR IOWA
NATIONAL WEATHER SERVICE DES MOINES IA
900 PM CDT FRI AUG 01 2014

NOTE: "FAIR" INDICATES FEW OR NO CLOUDS BELOW 12,000 FEET WITH NO
SIGNIFICANT WEATHER AND/OR OBSTRUCTIONS TO VISIBILITY.

* - THESE STATIONS ARE NOT NWS STATIONS...THUS NOT UNDER NWS
QUALITY CONTROL.  THEY ALSO DO NOT REPORT WEATHER SUCH
AS PRECIPITATION OR FOG.

IAZ001>003-012>014-020>022-031>034-043>046-020300-
   NORTHWEST IOWA

CITY           SKY/WX    TMP DP  RH WIND       PRES   REMARKS
CARROLL *      CLEAR     68  64  88 CALM      30.08R
CHEROKEE *     CLEAR     71  62  73 CALM      30.08S
DENISON *      CLEAR     70  66  88 CALM      30.07R
LE MARS *      CLEAR     68  64  88 CALM      30.08S
ORANGE CITY *  CLEAR     75  61  60 CALM      30.09S
SHELDON *      CLEAR     68  63  83 CALM      30.08S
SIOUX CITY     CLEAR     73  62  68 E3        30.07S
SPENCER        CLEAR     73  62  68 CALM      30.09R
STORM LAKE *   CLEAR     70  64  83 NW3       30.10R
$$

IAZ055>058-069>071-079>083-090>094-020300-
   SOUTHWEST IOWA

CITY           SKY/WX    TMP DP  RH WIND       PRES   REMARKS
ATLANTIC *     CLEAR     70  64  83 CALM      30.07R
AUDUBON *      CLEAR     70  64  83 CALM      30.10R
CLARINDA *     CLEAR     70  68  94 CALM      30.08R
COUNCIL BLFS * CLEAR     73  64  73 NE3       30.07S
CRESTON *      PTCLDY    72  64  78 E7        30.08S
HARLAN  *      CLEAR     68  66  94 CALM      30.11S
LAMONI         MOCLDY    74  63  68 CALM      30.08R
RED OAK *      CLEAR     72  66  83 N3        30.07R
SHENANDOAH *   CLEAR     72  68  88 CALM      30.07R
$$

IAZ047>049-059>061-072>074-084-020300-
   CENTRAL IOWA

CITY           SKY/WX    TMP DP  RH WIND       PRES   REMARKS
AMES           CLEAR     69  64  84 SE3       30.08R
ANKENY *       CLEAR     70  63  78 CALM      30.08R
CHARITON *     CLEAR     73  63  68 E3        30.08R
DES MOINES     PTCLDY    77  59  53 E5        30.07R
GRINNELL*      CLEAR     68  63  83 NE3       30.09R
KNOXVILLE *    CLEAR     75  61  60 NE5       30.07R
MARSHALLTOWN   CLEAR     71  64  78 E5        30.08R
PELLA *        CLEAR     70  62  75 CALM      30.09R
PERRY *          N/A     68  64  88 CALM      30.08R
$$

IAZ004>006-015-016-023>025-035-036-020300-
   NORTH CENTRAL IOWA

CITY           SKY/WX    TMP DP  RH WIND       PRES   REMARKS
ALGONA *       CLEAR     73  64  73 NE3       30.09R
CLARION *      CLEAR     70  64  83 CALM      30.09R
ESTHERVILLE    CLEAR     69  62  78 CALM      30.09R
FORT DODGE *   CLEAR     70  63  78 CALM      30.09R
MASON CITY     CLEAR     68  64  87 CALM      30.10R
FOREST CITY *  CLEAR     68  64  88 CALM      30.09R
IOWA FALLS *     N/A     70  63  78 CALM      30.10R
$$

IAZ007>011-017>019-026>030-037>042-050>054-066-020300-
   NORTHEAST IOWA

CITY           SKY/WX    TMP DP  RH WIND       PRES   REMARKS
CEDAR RAPIDS   CLEAR     71  67  87 CALM      30.07R
CHARLES CITY * CLEAR     68  63  83 CALM      30.09S
CLINTON *      MOCLDY    70  63  78 SE5       30.11R
DECORAH *      CLEAR     72  61  68 CALM      30.08S
DUBUQUE        CLEAR     67  62  84 CALM      30.09R
MONTICELLO *   CLEAR     68  66  94 CALM      30.08R
OELWEIN *      CLEAR     72  64  78 NW3       30.09S
WATERLOO       CLEAR     71  62  73 CALM      30.07R
$$

IAZ064-065-067-068-078-020300-
   EAST CENTRAL IOWA

CITY           SKY/WX    TMP DP  RH WIND       PRES   REMARKS
DAVENPORT      PTCLDY    68  58  70 SE8       30.08F
IOWA CITY      CLEAR     71  62  73 CALM      30.08S
MT. PLEASANT * PTCLDY    71  63  75 NE5       30.08R
MUSCATINE *    CLEAR     72  68  88 CALM      30.07S
QUAD CITIES    PTCLDY    70  65  84 SE8       30.08R
$$

IAZ062-063-075>077-085>089-095>099-020300-
   SOUTHEAST IOWA

CITY           SKY/WX    TMP DP  RH WIND       PRES   REMARKS
BURLINGTON     TSTM      67  65  93 SE7G17    30.10R
FAIRFIELD *    CLEAR     70  64  83 N3        30.08R
FORT MADISON * PTCLDY    72  64  78 E15G24    30.11R
KEOKUK *       PTCLDY    72  68  88 CALM      30.08R
OSKALOOSA *      N/A     72  64  78 CALM      30.08R
CENTERVILLE *  CLEAR     66  66 100 CALM      30.10R
OTTUMWA        CLEAR     73  62  68 NE5       30.07R
WASHINGTON *   CLEAR     72  68  88 E3        30.08R
$$

ABBREVIATIONS USED IN REMARKS
   TC - TEMPERATURES IN CELSIUS
  WCI - WIND CHILL INDEX
   HX - HEAT INDEX
  VSB - VISIBILITY
$$




USA.gov is the U.S. government's official web portal to all federal, state and local government web resources and services.